Weather History for Westhampton Beach, NY

Change the Weather History Date:

Saturday, February 9, 2013

  Actual Average Record
Temperature  
Mean Temperature 24 °F -  
Max Temperature 28 °F 38 °F 53 °F (2005)
Min Temperature 21 °F 20 °F 5 °F (2014)
Degree Days  
Heating Degree Days 40    
Moisture  
Dew Point 17 °F    
Average Humidity 71    
Maximum Humidity 92    
Minimum Humidity 45    
Precipitation  
Precipitation 0.08 in - - ()
Sea Level Pressure  
Sea Level Pressure 29.87 in    
Wind  
Wind Speed 22 mph (NW)    
Max Wind Speed 31 mph    
Max Gust Speed 43 mph    
Visibility 3 miles    
Events Fog , Snow    
Averages and records for this station are not official NWS values.
T = Trace of Precipitation, MM = Missing Value Source: NWS Daily Summary

Daily Weather History Graph

Daily Weather History Graph

Search for Another Location

Airport:

Trip Planner

Search our weather history database for the weather conditions in past years. The results will help you decide how hot, cold, wet, or windy it might be!

Date:

Astronomy

Feb. 09, 2013 Rise Set
Actual Time 6:51 AM EST 5:18 PM EST
Civil Twilight 6:23 AM EST 5:46 PM EST
Nautical Twilight 5:51 AM EST 6:18 PM EST
Astronomical Twilight 5:19 AM EST 6:50 PM EST
Moon 6:01 AM EST (2/9) 4:57 PM EST (2/9)
Length of Visible Light 11h 23m
Length of Day
10h 26m
Waning Crescent, 0% of the Moon is Illuminated
Feb 9
Waning Crescent
Feb 10
New
Feb 17
First Quarter
Feb 25
Full
Mar 4
Last Quarter

Hourly Weather History & Observations

Time (EST) Temp. Windchill Dew Point Humidity Pressure Visibility Wind Dir Wind Speed Gust Speed Precip Events Conditions
12:53 AM 23.0 °F 6.6 °F 21.0 °F 92% 29.65 in 0.2 mi NNW 25.3 mph 36.8 mph 0.02 in Fog Light Freezing Fog
1:39 AM 23.0 °F 8.7 °F 19.4 °F 86% 29.67 in 0.5 mi NNW 18.4 mph 29.9 mph 0.02 in Fog Light Freezing Fog
1:53 AM 23.0 °F 8.3 °F 19.9 °F 88% 29.68 in 0.5 mi NNW 19.6 mph 26.5 mph 0.02 in Fog Light Freezing Fog
2:03 AM 23.0 °F 6.3 °F 19.4 °F 86% 29.68 in 0.2 mi NNW 26.5 mph 36.8 mph N/A Fog Light Freezing Fog
2:33 AM 23.0 °F 8.3 °F 19.4 °F 86% 29.69 in 0.5 mi NNW 19.6 mph 29.9 mph 0.01 in Fog Light Freezing Fog
2:53 AM 24.1 °F 10.6 °F 19.9 °F 84% 29.69 in 0.5 mi NNW 17.3 mph 28.8 mph 0.01 in Fog Light Freezing Fog
3:07 AM 24.8 °F 11.5 °F 21.2 °F 86% 29.70 in 0.5 mi NNW 17.3 mph 27.6 mph 0.01 in Fog Light Freezing Fog
3:53 AM 24.1 °F 10.1 °F 21.0 °F 88% 29.71 in 0.8 mi NNW 18.4 mph 28.8 mph 0.01 in   Mist
4:39 AM 24.8 °F 10.7 °F 21.2 °F 86% 29.72 in 0.5 mi NNW 19.6 mph 26.5 mph 0.01 in Fog Light Freezing Fog
4:46 AM 26.6 °F 13.8 °F 21.2 °F 80% 29.72 in 0.5 mi NNW 17.3 mph 28.8 mph 0.01 in Fog Light Freezing Fog
4:53 AM 26.1 °F 12.0 °F 21.9 °F 84% 29.73 in 0.8 mi NNW 20.7 mph 32.2 mph 0.01 in   Mist
5:10 AM 26.6 °F 14.3 °F 23.0 °F 86% 29.73 in 1.0 mi NW 16.1 mph 34.5 mph N/A   Mist
5:26 AM 26.6 °F 14.3 °F 23.0 °F 86% 29.73 in 1.2 mi NW 16.1 mph 26.5 mph N/A   Overcast
5:53 AM 27.0 °F 13.2 °F 23.0 °F 85% 29.73 in 1.0 mi NW 20.7 mph 28.8 mph 0.01 in   Mist
5:59 AM 26.6 °F 13.4 °F 23.0 °F 86% 29.73 in 0.8 mi NW 18.4 mph 28.8 mph N/A   Mist
6:36 AM 26.6 °F 12.0 °F 23.0 °F 86% 29.75 in 0.2 mi NW 23.0 mph 32.2 mph N/A Fog Light Freezing Fog
6:48 AM 26.6 °F 12.0 °F 23.0 °F 86% 29.76 in 0.5 mi NW 23.0 mph 28.8 mph N/A Fog Light Freezing Fog
6:49 AM 26.1 °F 11.6 °F 23.0 °F 88% 29.76 in 0.5 mi NW 21.9 mph 28.8 mph N/A Fog Light Freezing Fog
7:23 AM 26.6 °F 12.4 °F 21.2 °F 80% 29.78 in 1.0 mi NW 21.9 mph 32.2 mph N/A   Mist
7:38 AM 26.6 °F 12.4 °F 21.2 °F 80% 29.79 in 1.0 mi NW 21.9 mph 35.7 mph N/A   Mist
7:44 AM 26.6 °F 11.7 °F 21.2 °F 80% 29.79 in 0.8 mi NW 24.2 mph 32.2 mph N/A   Mist
7:53 AM 26.1 °F 10.7 °F 21.9 °F 84% 29.80 in 0.8 mi NW 25.3 mph 34.5 mph N/A   Mist
8:29 AM 24.8 °F 9.3 °F 21.2 °F 86% 29.80 in 1.2 mi NW 24.2 mph 34.5 mph N/A   Overcast
8:53 AM 25.0 °F 9.9 °F 21.0 °F 85% 29.81 in 1.0 mi NW 23.0 mph 32.2 mph 0.00 in Snow Light Snow
9:13 AM 26.6 °F 11.7 °F 19.4 °F 74% 29.82 in 2.5 mi NW 24.2 mph 32.2 mph 0.00 in Snow Light Snow
9:17 AM 26.6 °F 11.1 °F 19.4 °F 74% 29.83 in 1.8 mi NW 26.5 mph 35.7 mph 0.00 in   Overcast
9:33 AM 26.6 °F 12.0 °F 19.4 °F 74% 29.84 in 3.0 mi NW 23.0 mph 33.4 mph N/A   Overcast
9:50 AM 26.6 °F 12.7 °F 17.6 °F 69% 29.84 in 2.5 mi NNW 20.7 mph 35.7 mph N/A   Overcast
10:03 AM 26.6 °F 12.0 °F 19.4 °F 74% 29.85 in 3.0 mi NNW 23.0 mph 33.4 mph N/A   Overcast
10:18 AM 26.6 °F 11.1 °F 17.6 °F 69% 29.85 in 2.0 mi NW 26.5 mph 38.0 mph N/A   Overcast
10:32 AM 26.6 °F 11.7 °F 17.6 °F 69% 29.85 in 4.0 mi NW 24.2 mph 32.2 mph N/A   Overcast
10:53 AM 27.0 °F 11.3 °F 18.0 °F 69% 29.86 in 3.0 mi NW 27.6 mph 38.0 mph N/A   Overcast
10:59 AM 26.6 °F 10.6 °F 17.6 °F 69% 29.87 in 1.8 mi NW 28.8 mph 42.6 mph N/A Snow Light Snow
11:26 AM 26.6 °F 10.6 °F 17.6 °F 69% 29.88 in 0.8 mi NW 28.8 mph 42.6 mph N/A Snow Light Snow
11:31 AM 26.6 °F 10.0 °F 17.6 °F 69% 29.87 in 2.0 mi NW 31.1 mph 42.6 mph N/A   Overcast
11:45 AM 26.6 °F 12.0 °F 17.6 °F 69% 29.89 in 4.0 mi NNW 23.0 mph 40.3 mph N/A   Overcast
11:53 AM 27.0 °F 10.8 °F 17.1 °F 66% 29.89 in 4.0 mi NNW 29.9 mph 35.7 mph N/A   Overcast
12:03 PM 26.6 °F 10.8 °F 17.6 °F 69% 29.89 in 2.0 mi NNW 27.6 mph 40.3 mph N/A   Overcast
12:21 PM 26.6 °F 11.7 °F 15.8 °F 64% 29.89 in 3.0 mi NW 24.2 mph 40.3 mph N/A   Mostly Cloudy
12:53 PM 26.1 °F 11.3 °F 16.0 °F 66% 29.90 in 2.5 mi NW 23.0 mph 36.8 mph N/A   Overcast
1:02 PM 26.6 °F 11.4 °F 15.8 °F 64% 29.90 in 2.5 mi NW 25.3 mph 33.4 mph N/A   Mostly Cloudy
1:19 PM 26.6 °F 11.7 °F 15.8 °F 64% 29.90 in 3.0 mi NW 24.2 mph 33.4 mph N/A   Partly Cloudy
1:30 PM 26.6 °F 10.8 °F 14.0 °F 59% 29.90 in 2.5 mi NW 27.6 mph 38.0 mph N/A   Clear
1:41 PM 26.6 °F 10.8 °F 14.0 °F 59% 29.90 in 3.0 mi NW 27.6 mph 39.1 mph N/A   Clear
1:53 PM 27.0 °F 11.3 °F 12.9 °F 56% 29.92 in 4.0 mi NNW 27.6 mph 36.8 mph N/A   Clear
2:53 PM 28.0 °F 14.3 °F 12.0 °F 51% 29.96 in 7.0 mi NW 21.9 mph 32.2 mph N/A   Clear
3:30 PM 28.4 °F 13.8 °F 12.2 °F 51% 29.99 in 1.5 mi NW 25.3 mph 35.7 mph N/A   Partly Cloudy
3:40 PM 28.4 °F 14.1 °F 10.4 °F 47% 29.99 in 4.0 mi NW 24.2 mph 31.1 mph N/A   Partly Cloudy
3:53 PM 28.0 °F 13.3 °F 10.9 °F 49% 30.00 in 6.0 mi NW 25.3 mph 40.3 mph N/A   Partly Cloudy
4:53 PM 27.0 °F 12.8 °F 8.1 °F 45% 30.04 in 9.0 mi NW 21.9 mph 34.5 mph N/A   Clear
5:53 PM 25.0 °F 11.3 °F 8.1 °F 49% 30.10 in 10.0 mi NW 18.4 mph 27.6 mph N/A   Clear
6:53 PM 24.1 °F 9.4 °F 8.1 °F 51% 30.14 in 10.0 mi NW 20.7 mph 27.6 mph N/A   Clear
7:53 PM 24.1 °F 9.4 °F 8.1 °F 51% 30.18 in 10.0 mi NW 20.7 mph 29.9 mph N/A   Clear
8:53 PM 23.0 °F 9.2 °F 7.0 °F 50% 30.20 in 10.0 mi NNW 17.3 mph 24.2 mph N/A   Clear
9:53 PM 23.0 °F 11.7 °F 7.0 °F 50% 30.24 in 10.0 mi NNW 11.5 mph 21.9 mph N/A   Clear
10:53 PM 21.9 °F 7.3 °F 7.0 °F 53% 30.26 in 10.0 mi NNW 18.4 mph 24.2 mph N/A   Clear
11:53 PM 21.0 °F 7.1 °F 6.1 °F 53% 30.27 in 10.0 mi NNW 16.1 mph 24.2 mph N/A   Clear